Location: Mahannah Oil Field
(37.4664°N, 96.6003°W)
Time: 13:59:58
(UTC+00:00)

Explorer 7 - All Passes

Search period start: 23 January 2021 00:00
Search period end: 02 February 2021 00:00
Orbit: 484 x 678 km, 50.3° (Epoch: 22 January)

Date Brightness Start Highest point End Pass type
(mag) Time Alt. Az. Time Alt. Az. Time Alt. Az.
23 Jan - 09:11:27 10° SE 09:12:11 10° SE 09:12:54 10° ESE night (unlit)
23 Jan - 10:48:16 10° SW 10:52:03 87° NW 10:55:59 10° NE visible
23 Jan - 12:30:04 10° WNW 12:33:01 20° NNW 12:36:04 10° NNE visible
23 Jan - 14:12:37 10° NNW 14:14:46 14° N 14:16:58 10° NE daylight
23 Jan - 15:52:55 10° NNW 15:56:26 25° NNE 16:00:07 10° ENE daylight
23 Jan - 17:32:56 10° NW 17:37:19 79° SW 17:41:57 10° SE daylight
23 Jan - 19:15:36 10° WSW 19:17:22 12° SW 19:19:10 10° SSW daylight
24 Jan - 09:13:48 10° S 09:16:30 19° SE 09:19:16 10° E night (unlit)
24 Jan - 10:52:57 10° WSW 10:56:39 51° NNW 11:00:30 10° NE visible
24 Jan - 12:35:20 10° NW 12:37:53 16° NNW 12:40:29 10° NNE visible
24 Jan - 14:17:22 10° NNW 14:19:42 14° N 14:22:05 10° NE daylight
24 Jan - 15:57:20 10° NW 16:01:11 33° NNE 16:05:15 10° E daylight
24 Jan - 17:37:36 10° WNW 17:41:50 48° SW 17:46:17 10° SSE daylight
25 Jan - 09:17:29 10° SSW 09:20:53 34° SE 09:24:22 10° ENE night (unlit)
25 Jan - 10:57:52 10° W 11:01:19 33° NNW 11:04:55 10° NE visible
25 Jan - 12:40:38 10° NW 12:42:47 14° N 12:45:00 10° NNE visible
25 Jan - 14:21:56 10° NNW 14:24:36 16° NNE 14:27:21 10° NE daylight
25 Jan - 16:01:46 10° NW 16:05:52 47° NNE 16:10:13 10° ESE daylight
25 Jan - 17:42:29 10° WNW 17:46:17 29° SW 17:50:15 10° SSE daylight
26 Jan - 09:21:40 10° SW 09:25:21 62° SE 09:29:09 10° ENE night (unlit)
26 Jan - 11:02:57 10° WNW 11:06:05 24° NNW 11:09:19 10° NNE visible
26 Jan - 12:45:47 10° NNW 12:47:43 13° N 12:49:41 10° NNE visible
26 Jan - 14:26:24 10° NNW 14:29:27 20° NNE 14:32:39 10° ENE daylight
26 Jan - 16:06:15 10° NW 16:10:29 74° NE 16:14:59 10° ESE daylight
26 Jan - 17:47:46 10° W 17:50:41 17° SW 17:53:41 10° S daylight
27 Jan - 07:48:21 10° SSE 07:49:57 12° SE 07:51:32 10° ESE night (unlit)
27 Jan - 09:26:10 10° WSW 09:29:53 75° NW 09:33:44 10° NE night (unlit)
27 Jan - 11:08:11 10° WNW 11:10:54 18° NNW 11:13:41 10° NNE visible
27 Jan - 12:50:42 10° NNW 12:52:39 13° N 12:54:38 10° NNE visible
27 Jan - 14:30:48 10° NNW 14:34:15 25° NNE 14:37:52 10° E daylight
27 Jan - 16:10:49 10° WNW 16:15:01 69° SW 16:19:31 10° SE daylight
28 Jan - 07:51:21 10° S 07:54:17 22° SE 07:57:15 10° E night (unlit)
28 Jan - 09:30:55 10° WSW 09:34:31 44° NNW 09:38:12 10° NE night (unlit)
28 Jan - 11:13:29 10° NW 11:15:46 15° NNW 11:18:06 10° NNE visible
28 Jan - 12:55:22 10° NNW 12:57:34 14° N 12:59:50 10° NE visible
28 Jan - 14:35:12 10° NW 14:38:58 35° NNE 14:42:58 10° E daylight
28 Jan - 16:15:32 10° WNW 16:19:31 41° SW 16:23:45 10° SSE daylight
29 Jan - 07:55:12 10° SSW 07:58:42 39° SE 08:02:14 10° ENE night (unlit)
29 Jan - 09:35:52 10° W 09:39:12 29° NNW 09:42:37 10° NE night (unlit)
29 Jan - 11:18:47 10° NW 11:20:40 13° N 11:22:37 10° NNE visible
29 Jan - 12:59:52 10° NNW 13:02:28 16° NNE 13:05:08 10° NE visible
29 Jan - 14:39:37 10° NW 14:43:38 52° NNE 14:47:54 10° ESE daylight
29 Jan - 16:20:31 10° WNW 16:23:58 24° SW 16:27:35 10° S daylight
30 Jan - 07:59:28 10° SW 08:03:11 73° SE 08:06:57 10° NE night (unlit)
30 Jan - 09:41:01 10° WNW 09:43:57 21° NNW 09:46:59 10° NNE night (unlit)
30 Jan - 11:23:55 10° NNW 11:25:36 12° N 11:27:20 10° NNE visible
30 Jan - 13:04:17 10° NNW 13:07:18 20° NNE 13:10:26 10° ENE visible
30 Jan - 14:44:07 10° NW 14:48:14 83° NE 14:52:36 10° SE daylight
30 Jan - 16:26:02 10° W 16:28:21 14° SW 16:30:44 10° SSW daylight
31 Jan - 06:25:34 10° SSE 06:27:42 15° SE 06:29:49 10° E night (unlit)
31 Jan - 08:04:02 10° WSW 08:07:44 65° NW 08:11:30 10° NE night (unlit)
31 Jan - 09:46:17 10° WNW 09:48:47 17° NNW 09:51:20 10° NNE night (unlit)
31 Jan - 11:28:44 10° NNW 11:30:32 13° N 11:32:22 10° NNE visible
31 Jan - 13:08:39 10° NNW 13:12:04 26° NNE 13:15:39 10° E daylight
31 Jan - 14:48:43 10° WNW 14:52:46 59° SW 14:57:03 10° SE daylight
01 Feb - 06:28:54 10° S 06:32:04 26° SE 06:35:13 10° ENE night (unlit)
01 Feb - 08:08:50 10° WSW 08:12:22 39° NNW 08:15:57 10° NE night (unlit)
01 Feb - 09:51:37 10° NW 09:53:40 14° N 09:55:45 10° NNE visible
01 Feb - 11:33:20 10° NNW 11:35:27 14° N 11:37:37 10° NE visible
01 Feb - 13:13:03 10° NW 13:16:47 37° NNE 13:20:42 10° E daylight
01 Feb - 14:53:30 10° WNW 14:57:14 34° SW 15:01:11 10° SSE daylight
